Sioux Falls, SD

11:56 AM CDT on April 28, 2017 (GMT -0500)
Foss

Weather History for KFSD - April, 2013

Change the Weather History Date:

Wednesday, April 3, 2013

  Actual Average Record
Temperature  
Mean Temperature 46 °F 41 °F  
Max Temperature 64 °F 52 °F 80 °F (1910)
Min Temperature 27 °F 29 °F 4 °F (1936)
Degree Days  
Heating Degree Days 19 24  
Month to date heating degree days 90 74  
Since 1 July heating degree days 6862 6919  
Cooling Degree Days 0 0  
Month to date cooling degree days 0 0  
Year to date cooling degree days 0 0  
Moisture  
Dew Point 25 °F    
Average Humidity 50    
Maximum Humidity 75    
Minimum Humidity 25    
Precipitation  
Precipitation 0.00 in 0.09 in 2.06 in (1968)
Month to date precipitation 0.00 0.26  
Year to date precipitation 2.23 3.18  
Snow  
Snow 0.00 in 0.20 in 3.30 in (1974)
Month to date snowfall 0.0 0.6  
Since 1 July snowfall 27.0 40.5  
Snow Depth 0.00 in    
Sea Level Pressure  
Sea Level Pressure 30.21 in    
Wind  
Wind Speed 15 mph (South)    
Max Wind Speed 25 mph    
Max Gust Speed 33 mph    
Visibility 10 miles    
Events      
T = Trace of Precipitation, MM = Missing Value Source: NWS Daily Summary

Daily Weather History Graph

Daily Weather History Graph

Search for Another Location

Airport or City:

Trip Planner

Search our weather history database for the weather conditions in past years. The results will help you decide how hot, cold, wet, or windy it might be!

Date:

Astronomy

Apr. 03, 2013 Rise Set
Actual Time 7:04 AM CDT 7:56 PM CDT
Civil Twilight 6:35 AM CDT 8:25 PM CDT
Nautical Twilight 6:00 AM CDT 9:00 PM CDT
Astronomical Twilight 5:25 AM CDT 9:36 PM CDT
Moon 2:58 AM CDT (4/3) 12:58 PM CDT (4/3)
Length of Visible Light 13h 50m
Length of Day
12h 51m
Last Quarter, 44% of the Moon is Illuminated
Apr 3
Last Quarter
Apr 10
New
Apr 18
First Quarter
Apr 25
Full
May 2
Last Quarter

Hourly Weather History & Observations

Time (CDT) Temp. Windchill Dew Point Humidity Pressure Visibility Wind Dir Wind Speed Gust Speed Precip Events Conditions
12:56 AM 28.0 °F 20.0 °F 21.9 °F 78% 30.35 in 10.0 mi ESE 8.1 mph - N/A   Clear
1:56 AM 28.0 °F 20.8 °F 21.9 °F 78% 30.35 in 10.0 mi SE 6.9 mph - N/A   Clear
2:56 AM 28.9 °F 20.4 °F 21.9 °F 75% 30.34 in 10.0 mi ESE 9.2 mph - N/A   Clear
3:56 AM 28.0 °F 19.3 °F 21.0 °F 75% 30.33 in 10.0 mi ESE 9.2 mph - N/A   Clear
4:56 AM 28.0 °F 18.6 °F 21.0 °F 75% 30.32 in 10.0 mi SE 10.4 mph - N/A   Clear
5:56 AM 28.0 °F 18.6 °F 21.9 °F 78% 30.30 in 10.0 mi SE 10.4 mph - N/A   Clear
6:56 AM 28.0 °F 18.6 °F 21.9 °F 78% 30.31 in 10.0 mi SE 10.4 mph - N/A   Clear
7:56 AM 30.0 °F 20.0 °F 23.0 °F 75% 30.31 in 10.0 mi SSE 12.7 mph - N/A   Clear
8:56 AM 34.0 °F 23.0 °F 23.0 °F 64% 30.29 in 10.0 mi South 18.4 mph - N/A   Clear
9:56 AM 37.9 °F 28.2 °F 24.1 °F 57% 30.27 in 10.0 mi South 18.4 mph 25.3 mph N/A   Clear
10:56 AM 45.0 °F 37.9 °F 25.0 °F 46% 30.24 in 10.0 mi South 16.1 mph 23.0 mph N/A   Clear
11:56 AM 48.9 °F - 27.0 °F 43% 30.22 in 10.0 mi South 18.4 mph 26.5 mph N/A   Clear
12:56 PM 54.0 °F - 27.0 °F 35% 30.19 in 10.0 mi SSW 17.3 mph 28.8 mph N/A   Clear
1:56 PM 57.9 °F - 27.0 °F 31% 30.16 in 10.0 mi SSW 17.3 mph 27.6 mph N/A   Clear
2:56 PM 61.0 °F - 27.0 °F 27% 30.13 in 10.0 mi SSW 16.1 mph 27.6 mph N/A   Clear
3:56 PM 63.0 °F - 27.0 °F 26% 30.10 in 10.0 mi SSW 18.4 mph 28.8 mph N/A   Clear
4:56 PM 63.0 °F - 27.0 °F 26% 30.08 in 10.0 mi SSW 20.7 mph 26.5 mph N/A   Clear
5:56 PM 62.1 °F - 27.0 °F 26% 30.08 in 10.0 mi SW 15.0 mph 27.6 mph N/A   Clear
6:56 PM 59.0 °F - 26.1 °F 28% 30.09 in 10.0 mi SSW 19.6 mph 27.6 mph N/A   Clear
7:56 PM 55.9 °F - 26.1 °F 32% 30.09 in 10.0 mi SSW 13.8 mph 25.3 mph N/A   Clear
8:56 PM 52.0 °F - 26.1 °F 37% 30.09 in 10.0 mi South 18.4 mph 25.3 mph N/A   Clear
9:56 PM 50.0 °F - 26.1 °F 39% 30.09 in 10.0 mi South 18.4 mph 25.3 mph N/A   Clear
10:56 PM 48.0 °F - 26.1 °F 42% 30.08 in 10.0 mi SSW 19.6 mph 26.5 mph N/A   Clear
11:56 PM 46.0 °F 39.0 °F 26.1 °F 46% 30.09 in 10.0 mi SSW 17.3 mph 24.2 mph N/A   Clear